Trenton, NJ

2:55 AM EDT on May 26, 2017 (GMT -0400)
Trenton Mercer

Weather History for KTTN - November, 2012

Change the Weather History Date:

Friday, November 30, 2012

  Actual Average Record
Temperature  
Mean Temperature 36 °F 41 °F  
Max Temperature 47 °F 49 °F 71 °F (1933)
Min Temperature 25 °F 33 °F 9 °F (1875)
Degree Days  
Heating Degree Days 29 24  
Month to date heating degree days 700 580  
Since 1 July heating degree days 1007 976  
Cooling Degree Days 0 0  
Month to date cooling degree days 0 0  
Year to date cooling degree days 1234 965  
Moisture  
Dew Point 30 °F    
Average Humidity 71    
Maximum Humidity 92    
Minimum Humidity 49    
Precipitation  
Precipitation 0.00 in 0.14 in 0.95 in (2016)
Month to date precipitation 1.18 3.31  
Year to date precipitation 33.23 42.74  
Sea Level Pressure  
Sea Level Pressure 30.36 in    
Wind  
Wind Speed 4 mph (ENE)    
Max Wind Speed 14 mph    
Max Gust Speed 17 mph    
Visibility 8 miles    
Events      
T = Trace of Precipitation, MM = Missing Value Source: NWS Daily Summary

Daily Weather History Graph

Daily Weather History Graph

Search for Another Location

Airport or City:

Trip Planner

Search our weather history database for the weather conditions in past years. The results will help you decide how hot, cold, wet, or windy it might be!

Date:

Astronomy

Nov. 30, 2012 Rise Set
Actual Time 7:02 AM EST 4:33 PM EST
Civil Twilight 6:31 AM EST 5:04 PM EST
Nautical Twilight 5:58 AM EST 5:37 PM EST
Astronomical Twilight 5:25 AM EST 6:10 PM EST
Moon 6:26 PM EST (11/30) 8:32 AM EST (11/30)
Length of Visible Light 10h 32m
Length of Day
9h 31m
Waning Gibbous, 96% of the Moon is Illuminated
Nov 30
Waning Gibbous
Dec 6
Last Quarter
Dec 13
New
Dec 20
First Quarter
Dec 28
Full

Hourly Weather History & Observations

Time (EST) Temp. Windchill Dew Point Humidity Pressure Visibility Wind Dir Wind Speed Gust Speed Precip Events Conditions
12:53 AM 30.0 °F - 21.9 °F 72% 30.31 in 8.0 mi Calm Calm - N/A   Clear
1:53 AM 27.0 °F - 21.9 °F 81% 30.33 in 8.0 mi Calm Calm - N/A   Clear
2:53 AM 28.0 °F - 21.9 °F 78% 30.33 in 8.0 mi Calm Calm - N/A   Clear
3:53 AM 27.0 °F 23.0 °F 23.0 °F 85% 30.32 in 7.0 mi WSW 3.5 mph - N/A   Clear
4:53 AM 28.0 °F - 23.0 °F 81% 30.32 in 8.0 mi Calm Calm - N/A   Clear
5:53 AM 26.1 °F 20.5 °F 21.9 °F 84% 30.33 in 7.0 mi North 4.6 mph - N/A   Clear
7:53 AM 27.0 °F - 24.1 °F 89% 30.37 in 5.0 mi Calm Calm - N/A   Scattered Clouds
8:53 AM 33.1 °F - 28.0 °F 82% 30.37 in 6.0 mi Calm Calm - N/A   Haze
9:53 AM 39.0 °F - 28.9 °F 67% 30.39 in 6.0 mi Calm Calm - N/A   Haze
10:53 AM 42.1 °F - 28.0 °F 58% 30.37 in 8.0 mi Calm Calm - N/A   Mostly Cloudy
11:53 AM 45.0 °F 41.8 °F 28.0 °F 52% 30.35 in 10.0 mi East 5.8 mph - N/A   Scattered Clouds
12:53 PM 45.0 °F 41.8 °F 26.1 °F 48% 30.35 in 10.0 mi East 5.8 mph - N/A   Overcast
1:53 PM 45.0 °F 41.2 °F 28.0 °F 52% 30.35 in 9.0 mi East 6.9 mph - N/A   Overcast
2:53 PM 45.0 °F 42.6 °F 28.0 °F 52% 30.35 in 9.0 mi NE 4.6 mph - N/A   Overcast
3:53 PM 44.1 °F 41.5 °F 28.0 °F 53% 30.34 in 8.0 mi ENE 4.6 mph - N/A   Mostly Cloudy
4:53 PM 42.1 °F 38.4 °F 30.0 °F 62% 30.35 in 9.0 mi East 5.8 mph - N/A   Clear
5:53 PM 41.0 °F 37.1 °F 30.9 °F 67% 30.36 in 9.0 mi ENE 5.8 mph - N/A   Clear
6:53 PM 41.0 °F 35.8 °F 32.0 °F 70% 30.37 in 9.0 mi ENE 8.1 mph - N/A   Partly Cloudy
7:53 PM 41.0 °F 37.1 °F 37.0 °F 86% 30.39 in 8.0 mi East 5.8 mph - N/A   Scattered Clouds
8:53 PM 39.0 °F 35.7 °F 36.0 °F 89% 30.38 in 7.0 mi NE 4.6 mph - N/A   Clear
9:27 PM 39.2 °F 35.0 °F 37.4 °F 93% 30.40 in 6.0 mi ENE 5.8 mph - N/A   Mostly Cloudy
9:39 PM 39.2 °F 33.6 °F 37.4 °F 93% 30.39 in 7.0 mi East 8.1 mph - N/A   Overcast
9:53 PM 41.0 °F 35.2 °F 37.9 °F 89% 30.38 in 8.0 mi East 9.2 mph - N/A   Overcast
10:12 PM 41.0 °F 34.7 °F 37.4 °F 87% 30.39 in 9.0 mi East 10.4 mph - N/A   Scattered Clouds
10:53 PM 39.9 °F 33.9 °F 37.0 °F 89% 30.39 in 9.0 mi East 9.2 mph - N/A   Overcast
11:53 PM 39.9 °F 32.9 °F 35.1 °F 83% 30.40 in 10.0 mi East 11.5 mph - N/A   Mostly Cloudy